Home > Weather > Hampton > Past weeks

Flag for USA Past Weather in Hampton, Virginia, USA — Yesterday and Last 2 Weeks

Now
86 °F

Sunny.


Feels Like: 91 °F
Forecast: 76 / 89 °F
Wind: 9 mph from Southwest

Location: Langley Air Force Base

Current Time: Aug 25, 2016 at 8:02:57 PM

Latest Report: Aug 25, 2016 at 6:58 PM


Visibility: 10 mi

Pressure: 30.06 "Hg

Humidity: 60%

Dew Point: 71 °F

Location of HamptonLocation

Past Weather in Hampton — Graph

°F

Hampton Temperature Yesterday

Maximum temperature yesterday: 82 °F (at 2:58 PM)
Minimum temperature yesterday: 63 °F (at 5:58 AM)
Average temperature yesterday: 74 °F

High & Low Weather Summary for the Past Weeks

 TemperatureHumidityPressure
High95 °F (Aug 14, 3:58 PM)98% (Aug 20, 4:58 AM)30.35 "Hg (Aug 20, 4:58 AM)
Low63 °F (Aug 24, 5:58 AM)41% (Aug 24, 1:58 PM)29.77 "Hg (Aug 21, 4:58 PM)
Average82 °F75%30.08 "Hg
* Reported Aug 10 6:58 PM — Aug 25 6:58 PM, Hampton, Weather by CustomWeather, © 2016

Note: Actual official high and low records may vary slightly from our data, if they occured in-between our weather recording intervals... More about our weather records

Advertising

Hampton Weather History for the Previous 24 Hours

Scroll right to see more
 ConditionsComfort  
Time TempWeatherWind HumidityBarometerVisibility
6:58 PM
Thu, Aug 25
86 °FSunny.9 mph60%30.06 "Hg10 mi
5:58 PM87 °FScattered clouds.10 mph56%30.07 "Hg10 mi
4:58 PM88 °FScattered clouds.5 mph54%30.08 "Hg10 mi
3:58 PM87 °FScattered clouds.10 mph54%30.08 "Hg10 mi
2:58 PM88 °FScattered clouds.10 mph54%30.10 "Hg10 mi
1:58 PM85 °FScattered clouds.13 mph56%30.12 "Hg10 mi
12:58 PM86 °FSunny.8 mph53%30.14 "Hg9 mi
11:58 AM85 °FSunny.10 mph54%30.16 "Hg10 mi
10:58 AM83 °FScattered clouds.7 mph58%30.18 "Hg10 mi
9:58 AM81 °FPassing clouds.12 mph66%30.18 "Hg10 mi
8:58 AM78 °FPassing clouds.9 mph77%30.18 "Hg10 mi
7:58 AM74 °FPassing clouds.5 mph91%30.18 "Hg10 mi
6:58 AM68 °FPassing clouds.3 mph96%30.18 "Hg10 mi
5:58 AM68 °FClear.2 mph96%30.18 "Hg10 mi
4:58 AM70 °FClear.2 mph93%30.17 "Hg10 mi
3:58 AM69 °FClear.3 mph94%30.17 "Hg10 mi
2:58 AM69 °FClear.2 mph92%30.16 "Hg10 mi
1:58 AM69 °FClear.2 mph93%30.19 "Hg9 mi
12:58 AM73 °FClear.2 mph86%30.20 "Hg10 mi
11:58 PM
Wed, Aug 24
73 °FClear.2 mph85%30.21 "Hg10 mi
10:58 PM73 °FClear.5 mph81%30.22 "Hg10 mi
9:58 PM75 °FClear.5 mph77%30.23 "Hg10 mi
8:58 PM75 °FClear.7 mph74%30.23 "Hg10 mi
Weather by CustomWeather, © 2016

See weather overviewHow to use our weather pages